Little Rock AFB, AR

3:56 AM CDT on March 25, 2017 (GMT -0500)
Little Rock Air Force Base

Weather History for KLRF - November, 2013

Change the Weather History Date:

Tuesday, November 19, 2013

  Actual Average Record
Temperature  
Mean Temperature 49 °F -  
Max Temperature 58 °F 62 °F 78 °F (1985)
Min Temperature 40 °F 43 °F 22 °F (1980)
Degree Days  
Heating Degree Days 16    
Moisture  
Dew Point 30 °F    
Average Humidity 52    
Maximum Humidity 77    
Minimum Humidity 31    
Precipitation  
Precipitation 0.00 in - - ()
Sea Level Pressure  
Sea Level Pressure 30.25 in    
Wind  
Wind Speed 5 mph (ENE)    
Max Wind Speed 13 mph    
Max Gust Speed -    
Visibility 10 miles    
Events      
Averages and records for this station are not official NWS values.
T = Trace of Precipitation, MM = Missing Value Source: NWS Daily Summary

Daily Weather History Graph

Daily Weather History Graph

Search for Another Location

Airport or City:

Trip Planner

Search our weather history database for the weather conditions in past years. The results will help you decide how hot, cold, wet, or windy it might be!

Date:

Astronomy

Nov. 19, 2013 Rise Set
Actual Time 6:47 AM CST 5:00 PM CST
Civil Twilight 6:19 AM CST 5:27 PM CST
Nautical Twilight 5:49 AM CST 5:58 PM CST
Astronomical Twilight 5:19 AM CST 6:28 PM CST
Moon 6:53 PM CST (11/19) 8:25 AM CST (11/19)
Length of Visible Light 11h 08m
Length of Day
10h 13m
Waning Gibbous, 96% of the Moon is Illuminated
Nov 19
Waning Gibbous
Nov 25
Last Quarter
Dec 2
New
Dec 9
First Quarter
Dec 17
Full

Hourly Weather History & Observations

Time (CST) Temp. Windchill Dew Point Humidity Pressure Visibility Wind Dir Wind Speed Gust Speed Precip Events Conditions
12:58 AM 47.3 °F - 27.5 °F 46% 30.26 in 10.0 mi NE 5.8 mph - N/A   Partly Cloudy
1:58 AM 44.6 °F - 28.0 °F 52% 30.27 in 10.0 mi Calm Calm - N/A   Scattered Clouds
2:58 AM 40.1 °F - 33.4 °F 77% 30.27 in 10.0 mi ENE 2.3 mph - N/A   Mostly Cloudy
3:58 AM 41.9 °F - 32.7 °F 70% 30.26 in 10.0 mi Calm Calm - N/A   Overcast
4:58 AM 44.2 °F 42.7 °F 30.9 °F 60% 30.27 in 8.0 mi NNE 3.5 mph - N/A   Mostly Cloudy
5:58 AM 45.0 °F - 30.6 °F 57% 30.29 in 9.0 mi Calm Calm - N/A   Mostly Cloudy
6:58 AM 44.2 °F 41.8 °F 30.6 °F 59% 30.31 in 10.0 mi NE 4.6 mph - N/A   Mostly Cloudy
7:44 AM 46.4 °F 43.5 °F 28.4 °F 50% 30.31 in 10.0 mi ENE 5.8 mph - N/A   Light Drizzle
7:52 AM 48.2 °F - 28.4 °F 46% 30.31 in 10.0 mi ENE 5.8 mph - N/A   Scattered Clouds
7:58 AM 47.8 °F - 29.3 °F 49% 30.32 in 10.0 mi ENE 8.1 mph - 0.00 in   Partly Cloudy
8:58 AM 48.9 °F - 29.7 °F 47% 30.32 in 10.0 mi ENE 9.2 mph - N/A   Scattered Clouds
9:58 AM 50.2 °F - 31.1 °F 48% 30.33 in 10.0 mi Variable 4.6 mph - N/A   Scattered Clouds
10:58 AM 51.4 °F - 30.6 °F 45% 30.32 in 10.0 mi East 5.8 mph - N/A   Scattered Clouds
11:58 AM 54.7 °F - 30.6 °F 40% 30.28 in 10.0 mi ENE 8.1 mph - N/A   Mostly Cloudy
12:58 PM 56.8 °F - 30.4 °F 37% 30.26 in 10.0 mi NE 10.4 mph - N/A   Mostly Cloudy
1:58 PM 57.2 °F - 27.9 °F 33% 30.23 in 10.0 mi ENE 12.7 mph - N/A   Scattered Clouds
2:58 PM 58.1 °F - 27.5 °F 31% 30.21 in 10.0 mi ENE 9.2 mph - N/A   Scattered Clouds
3:58 PM 56.3 °F - 25.5 °F 31% 30.20 in 10.0 mi ENE 10.4 mph - N/A   Clear
4:58 PM 52.5 °F - 28.4 °F 39% 30.19 in 10.0 mi ENE 6.9 mph - N/A   Clear
5:58 PM 46.2 °F 45.0 °F 30.2 °F 54% 30.19 in 10.0 mi NE 3.5 mph - N/A   Clear
6:58 PM 42.3 °F 40.5 °F 32.0 °F 67% 30.19 in 10.0 mi ENE 3.5 mph - N/A   Clear
7:58 PM 42.4 °F 40.7 °F 30.6 °F 63% 30.19 in 10.0 mi ENE 3.5 mph - N/A   Clear
8:58 PM 41.2 °F - 30.7 °F 66% 30.19 in 10.0 mi East 2.3 mph - N/A   Clear
9:58 PM 43.2 °F 39.0 °F 31.1 °F 62% 30.17 in 10.0 mi Variable 6.9 mph - N/A   Partly Cloudy
10:58 PM 43.9 °F - 30.7 °F 60% 30.19 in 10.0 mi Calm Calm - N/A   Overcast
11:58 PM 41.0 °F 39.0 °F 30.9 °F 67% 30.19 in 10.0 mi North 3.5 mph - N/A   Mostly Cloudy